#timestamp,LO_Frequency,Hit,StdDev 
1648875615.2,286046999.9,N
1648875635.1,286046998.2,N
1648875636.0,286046998.2,N
1648875655.8,286046998.8,N
1648875675.7,286046998.1,N
1648875695.5,286047000.1,N
1648875715.3,286047000.5,N
1648875735.2,286047000.9,N
1648875755.0,286047002.7,N
1648875755.9,286047002.7,N
1648875775.8,286047002.7,N
1648875795.6,286047002.1,N
1648875815.4,286047000.0,N
1648875835.3,286046999.9,N
1648875855.1,286047000.7,N
1648875875.8,286046998.2,N
1648875895.7,286047000.6,N
1648875915.5,286047000.5,N
1648875935.4,286046999.9,N
1648875955.2,286046998.6,N
1648875975.0,286046998.1,N
1648875975.9,286046998.1,N
1648875995.8,286046998.6,N
1648876015.6,286047001.1,N
1648876035.5,286047000.8,N
1648876055.3,286047000.8,N
1648876075.1,286047001.0,N
1648876095.9,286047000.6,N
1648876115.7,286046998.6,N
1648876135.5,286046999.3,N
1648876155.4,286046996.8,N
1648876175.2,286046997.5,N
1648876195.1,286046996.5,N
1648876196.0,286046996.5,N
1648876215.8,286046999.4,N
1648876235.6,286046999.5,N
1648876255.5,286046996.5,N
1648876275.3,286046999.4,N
1648876295.1,286047000.8,N
1648876315.9,286047000.9,N
1648876335.7,286047000.4,N
1648876355.6,286047001.2,N
1648876375.4,286046999.3,N
1648876395.2,286046998.5,N
1648876415.1,286046999.5,N
1648876416.0,286046999.5,N
1648876435.8,286046998.6,N
1648876455.7,286046999.2,N
1648876475.5,286046999.5,N
1648876495.3,286046998.2,N
1648876515.2,286046999.0,N
1648876535.0,286046996.6,N
1648876535.9,286046996.6,N
1648876555.8,286046999.0,N
1648876575.6,286046999.3,N
1648876595.4,286046998.1,N
1648876615.5,286046998.7,N
1648876635.4,286046996.6,N
1648876655.2,286047001.0,N
1648876675.0,286047000.3,N
1648876675.9,286047000.3,N
1648876695.8,286047000.7,N
1648876715.6,286047001.2,N
1648876735.4,286047001.2,N
1648876755.3,286046998.9,N
1648876775.1,286047000.9,N
1648876795.9,286047000.2,N
1648876815.7,286047000.5,N
1648876835.5,286047000.4,N
1648876855.4,286047000.5,N
1648876875.2,286047000.7,N
1648876895.0,286046999.6,N
1648876895.9,286046999.6,N
1648876915.8,286047000.8,N
1648876935.6,286046999.8,N
1648876955.5,286047001.0,N
1648876975.3,286046998.2,N
1648876995.1,286046998.2,N
1648877015.9,286047000.8,N
1648877035.7,286047000.7,N
1648877055.6,286047000.7,N
1648877075.4,286046998.1,N
1648877095.2,286047000.1,N
1648877115.1,286047000.2,N
1648877116.0,286047000.2,N
1648877135.8,286047002.7,N
1648877155.7,286047000.5,N
1648877175.5,286046998.1,N
1648877195.3,286046998.4,N
1648877215.2,286046998.6,N
1648877235.0,286046998.5,N
1648877235.9,286046998.5,N
1648877255.8,286046998.5,N
1648877275.6,286046998.6,N
1648877295.4,286047000.3,N
1648877315.3,286047000.2,N
1648877335.1,286047002.1,N
1648877355.9,286047001.0,N
1648877375.7,286046998.5,N
1648877395.5,286046999.4,N
1648877415.4,286046998.4,N
1648877435.2,286046998.2,N
1648877455.1,286047000.2,N
1648877456.0,286047000.2,N
1648877475.8,286047000.4,N
1648877495.6,286047000.9,N
1648877515.5,286046998.9,N
1648877535.3,286046998.3,N
1648877555.1,286046998.2,N
1648877575.9,286047000.2,N
1648877595.7,286047002.3,N
1648877615.6,286047002.8,N
1648877635.4,286047002.7,N
1648877655.2,286047002.6,N
1648877675.1,286047001.9,N
1648877676.0,286047001.9,N
1648877695.8,286047001.4,N
1648877715.7,286047001.7,N
1648877735.5,286047002.6,N
1648877755.3,286047002.4,N
1648877775.2,286047002.6,N
1648877795.9,286047001.6,N
1648877815.7,286047003.4,N
1648877835.6,286047002.9,N
1648877855.4,286047004.2,N
1648877875.3,286047001.7,N
1648877895.1,286047001.9,N
1648877896.0,286047001.9,N
1648877915.8,286047001.3,N
1648877935.7,286047002.4,N
1648877955.5,286047001.6,N
1648877975.3,286047002.6,N
1648877995.2,286047000.2,N
1648878015.0,286047000.7,N
1648878015.9,286047000.7,N
1648878035.8,286047000.9,N
1648878055.6,286047000.7,N
1648878075.5,286046998.1,N
1648878095.3,286046999.2,N
1648878115.1,286046997.6,N
1648878135.9,286046997.2,N
1648878155.7,286046999.5,N
1648878175.5,286047000.7,N
1648878195.4,286046998.4,N
1648878215.2,286046999.6,N
1648878235.1,286046998.4,N
1648878236.0,286046998.4,N
1648878255.8,286046998.7,N
1648878275.6,286046996.8,N
1648878295.5,286046999.1,N
1648878315.3,286046998.6,N
1648878335.2,286046999.0,N
1648878355.9,286046998.8,N
1648878375.7,286046999.4,N
1648878395.6,286046998.4,N
1648878415.4,286046997.8,N
1648878435.2,286046996.8,N
1648878455.1,286046996.6,N
1648878456.0,286046996.6,N
1648878475.8,286046998.9,N
1648878495.7,286046999.4,N
1648878515.5,286046998.4,N
1648878535.3,286046998.4,N
1648878555.2,286046999.4,N
1648878575.0,286046996.5,Y
1648878575.9,286046996.5,P
1648878595.7,286047000.8,N
1648878615.1,286046998.8,N
1648878635.9,286046999.4,N
1648878655.7,286046998.4,N
1648878675.5,286046998.7,N
1648878695.4,286046999.1,N
1648878715.2,286046999.3,N
1648878735.0,286046996.9,N
1648878735.9,286046996.9,N
1648878755.8,286046997.0,N
1648878775.6,286046999.0,N
1648878795.5,286046997.8,N
1648878815.3,286046995.4,Y
1648878835.1,286046997.6,P
1648878855.9,286046995.9,P
1648878875.7,286046993.8,P
1648878895.6,286046991.7,Y
1648878915.4,286046995.3,P
1648878935.2,286046995.3,P
1648878955.1,286046997.4,P
1648878956.0,286046997.4,Y
1648878975.8,286047004.0,P
1648878995.7,286047003.6,N
1648879015.5,286047003.6,N
1648879035.3,286047002.6,N
1648879055.2,286047004.4,N
1648879075.0,286047004.4,N
1648879075.9,286047004.4,N
1648879095.7,286047001.4,N
1648879115.6,286047004.4,N
1648879135.4,286047001.3,N
1648879155.3,286047002.0,N
1648879175.1,286047001.3,N
1648879176.0,286047001.3,N
1648879195.8,286047004.1,N
